Starlink 32879

operational
NORAD ID: 62957 Int'l Des: 2025-029 Owner: SPXS Country: US Constellation: starlink
LEOCIRCULAR

Starlink 32879について

説明を読み込み中...

リアルタイム位置

3D地球を読み込み中...

次回通過

高度履歴

Altitude vs Time

uPlot chart will show altitude changes over time

軌道要素

1 62957U 25029K 25354.91271524 .00016039 00000-0 55260-3 0 9997
2 62957 53.1582 238.5748 0001502 94.1299 265.9874 15.30192965 49256
Epoch: Dec 20, 2025 • Age: 16 hours

現在のステータス

高度 482.9 km
速度 7.62 km/s
衛星直下点 -24.42°S, 76.27°W
打ち上げ日 Feb 11, 2025
運用期間 0.8 years
タイプ internet

技術仕様

分類 Payload
質量 730.00 kg
乾燥質量 700.00 kg
総質量 730.00 kg
長さ 0.30 m
直径 4.10 m
スパン 29.00 m
形状 Box + pan
製造者 SPXS
バスタイプ Starlink V2M
フェーズステータス In Orbit
所有者/国 SPXS/US

大規模コンステレーション

Loading constellations...